Tracking 19219 objects as of 20-Jul-2018
HD Live streaming from Space Station
objects crossing your sky now

HINCUBE

Track HINCUBE now!
10-day predictions
HINCUBE is classified as:


NORAD ID: 39445
Int'l Code: 2013-066AF
Perigee: 589.8 km
Apogee: 673.0 km
Inclination: 97.6 °
Period: 97.2 minutes
Semi major axis: 7002 km
RCS: Unknown
Launch date: November 21, 2013
Source: Norway (NOR)
Launch site: Orenburg, Russia (OREN)
Uplink (MHz):
Downlink (MHz): 437.305
Beacon (MHz):
Mode:
Call sign:
Status: Inactive

aabbcc
Your satellite tracking list
Your tracking list is empty




NASA's NSSDC Master Catalog

Two Line Element Set (TLE):
1 39445U 13066AF  18200.62327876  .00000212  00000-0  32540-4 0  9996
2 39445  97.5870 229.0150 0059368  46.2557 314.3550 14.81602553250016
Source of the keplerian elements: AFSPC